CZ-4C DEB, 42671

Orbit data source: Space-Track

CZ-4C DEB, 42671 is space debris in SSO originally from a launch on Thu, 26 Nov 2015 UTC launched from the Taiyaun Space Center, China (TSC). Debris objects in space refer to the collection of defunct objects orbiting the Earth. Examples of debris include non-operational satellites, rocket bodies, and fragments generated from explosions, collisions, or faulty payload assembly.

Loading next visibility...
Identifier
42671, 2015-069D
Orbit
SSO
Last TLE update
1 day ago
Origin
Manufacturer
Unknown
Mission
Spacecraft
Bus & Motor
Unknown
Mass
Unknown
Launch date (UTC)
2015-11-26 (10 years ago)
Launch vehicle
Unknown
Launch site
Taiyaun Space Center, China (TSC)
Object type
Payload
Rocket body
Debris
Shape & HBR
Unknown
Radar Cross Section
Small (<0.1 m²)

Expand to show TLE details & history

TLE from 1 day ago
0 CZ-4C DEB
1 42671U 15069D   25190.88288552  .00003226  00000-0  45264-3 0  9991
2 42671  97.8292  58.8944 0122141  38.0299 322.9454 14.73090194506029
Epoch: 2025-07-09T21:11Z
TLE epoch observation values (Epoch: 2025-07-09T21:11:21.308Z)
Latitude
-0.00004°
Longitude
172.99849°
Altitude
586.087 km
Speed
7.604 km/s
True Right ascension
03h 55m 34s
True Declination
0° 00' 00"
Sunlit
Object was in daylight at epoch
Visualization orbit readout
Latitude
30.39755°
Longitude
169.84397°
Altitude
569.302 km
Speed
7.625 km/s
Apparent Right ascension
06h 14m 18s
Apparent Declination
-4° 07' 15"
Sunlit
Object is in daylight
Visualization observer readout
Local Sidereal Time
21:28:59
Azimuth
63.863° ENE
Elevation
-33.456°
Doppler factor
1
Orbital elements
Apogee altitude
734.088 km
Perigee altitude
562.445 km
Semi-major axis
7,026.404 km
Eccentricity
0.01221
Inclination
97.8292°
RAAN
58.8944°
Arg. of periapsis
38.0299°
True anomaly
Unknown
Mean anomaly
322.9454°
Eccentric anomaly
Unknown
Mean motion
3.68505 °/min
Orbital period
97.69 mins
BSTAR
0.00045264
Loading maneuver chart data...
Loading SW <> Apogee altitude chart data...
Loading historical data...
Loading historical data...
Loading historical data...
Loading historical data...
Loading historical data...
Loading historical data...
Loading historical data...
Other satellites on launch #69 in the year 2015 (2015-11-26 UTC)

CZ-4C DEB Visibility forecast

Observer location: undefined°, undefined°

Span
Click to sort rows by Start time (UTC) header in descending order
Start Az.
Max El. time (UTC)
Max El. Az.
Max El.
End time (UTC)
End Az.
4 mins2025-07-11 14:06:18.949Z98.453° ESE2025-07-11 14:08:18.949Z67.834° E14.151°2025-07-11 14:10:18.949Z36.048° NE
6 mins2025-07-11 15:42:18.949Z199.016° SSW2025-07-11 15:45:18.949Z279.36° WNW32.056°2025-07-11 15:48:18.949Z330.408° NNW
6 mins2025-07-12 03:34:18.949Z41.879° NE2025-07-12 03:37:18.949Z114.724° SE31.701°2025-07-12 03:40:18.949Z162.773° S
5 mins2025-07-12 05:11:18.949Z325.241° NNW2025-07-12 05:13:18.949Z292.343° WNW19.104°2025-07-12 05:16:18.949Z249.166° W
|